SCOUT A R/B, 2413

Orbit data source: Space-Track

SCOUT A R/B, 2413 is space debris in LEO originally from a launch on Thu, 18 Aug 1966 UTC launched from the Air Force Western Test Range (AFWTR). Debris objects in space refer to the collection of defunct objects orbiting the Earth. Examples of debris include non-operational satellites, rocket bodies, and fragments generated from explosions, collisions, or faulty payload assembly.

Loading next visibility...
Identifier
2413, 1966-076B
Orbit
LEO
Country
Flag of USUS
Related business
Manufacturer
ABL
Mission
Spacecraft
Bus & Motor
ALTAIR, Unknown motor
Mass
33 kg wet, 33 kg dry
Launch date (UTC)
1966-08-18 (60 years ago)
Launch vehicle
Unknown
Launch site
Air Force Western Test Range (AFWTR)
Object type
Payload
Rocket body
Debris
Shape & HBR
Unknown
Radar Cross Section
Medium (>0.1 m² and <1 m²)

Expand to show TLE details & history
Last TLE update: 6 hours ago

TLE from 6 hours ago
0 SCOUT A R/B
1  2413U 66076B   26177.72266178  .00000073  00000-0  91875-4 0  9991
2  2413  88.8465  70.6440 0033719  40.9799 319.3878 13.51872967949946
Epoch: 2026-06-26T17:20Z
TLE epoch observation values (Epoch: 2026-06-26T17:20:37.977Z)
Latitude
0.00003°
Longitude
-104.36132°
Altitude
1,049.308 km
Speed
7.337 km/s
True Right ascension
04h 42m 34s
True Declination
0° 00' 00"
Sunlit
Object was in daylight at epoch
Visualization orbit readout
Latitude
Unknown
Longitude
Unknown
Altitude
Unknown
Speed
Unknown
Apparent Right ascension
Unknown
Apparent Declination
Unknown
Sunlit
N/A
Visualization observer readout
Local Sidereal Time
10:32:34
Azimuth
Unknown
Elevation
Unknown
Doppler factor
Unknown
Orbital elements
Apogee altitude
1,087.515 km
Perigee altitude
1,037.337 km
Semi-major axis
7,440.563 km
Eccentricity
0.00337
Inclination
88.8465°
RAAN
70.644°
Arg. of periapsis
40.9799°
True anomaly
319.13548°
Mean anomaly
319.3878°
Eccentric anomaly
319.26172°
Mean motion
3.3817 °/min
Orbital period
106.46 mins
BSTAR
0.000091875
Loading maneuver chart data...
Computing Atmospheric mass density...
Loading historical data...
Loading historical data...
Loading historical data...
Loading historical data...
Loading historical data...
Loading historical data...
Loading historical data...

Documentation

Showing up to 5 results
|